Cloud_Cover
100 59 27 14 39 33 14 28 39 64 53 57 56 24 26 37 37 32 56 35 69 80 97 100 100 99 100 92 99 97 100 100 100 99 74 46 10 26 33 38 8 5 22
100 100 84 24 38 6 7 13 5 7 27 39 52 88 97 99 85 92 99 100 100 100 100 100 100 100 100 100 100 100 98 98 100 100 100 77 72 98 90 78 44 15 49
100 100 100 100 60 98 97 100 100 80 57 67 95 99 100 99 99 100 100 98 100 100 100 100 97 85 93 100 100 100 100 100 100 100 100 100 100 91 76 15 5 43 76
100 100 100 100 100 96 89 82 46 55 90 86 75 79 100 100 100 100 100 100 100 100 100 100 100 100 100 100 100 100 100 99 97 95 89 99 100 100 100 100 84 80 44
100 100 100 100 100 100 100 100 100 100 96 84 98 100 98 73 100 100 100 100 100 100 100 100 100 100 100 100 100 100 100 100 100 100 100 100 100 100 100 100 100 100 80
100 100 100 100 100 95 100 100 100 100 100 100 100 100 100 100 100 100 100 100 100 100 100 100 100 100 100 100 100 100 100 100 100 100 100 100 100 100 100 75 15 99 59
100 100 100 100 97 26 87 93 100 100 100 100 100 100 100 100 100 100 100 100 100 100 100 100 100 100 100 100 100 100 100 100 100 100 100 100 100 99 78 94 100 64 17
100 100 100 100 100 100 94 100 96 100 100 100 100 100 100 100 100 100 100 100 100 100 100 100 100 100 100 100 100 100 100 100 100 100 100 86 56 53 17 10 5 5 5
100 100 100 100 100 100 100 100 100 100 100 100 100 100 100 100 99 100 100 100 97 55 12 49 100 100 100 100 100 100 100 100 77 60 46 38 5 0 4 5 5 5 5
100 100 100 100 98 100 100 100 97 98 81 100 85 48 85 87 78 91 57 88 100 100 99 92 86 100 99 98 59 35 61 67 38 41 28 89 49 2 2 3 1 9 75
100 100 100 100 100 100 93 98 100 97 83 33 38 63 96 77 41 77 77 32 67 100 93 100 100 100 96 98 62 34 5 5 5 5 3 0 0 0 2 77 94 76 1
100 100 100 100 100 100 100 100 100 100 100 87 100 98 76 98 100 100 95 72 70 94 100 100 100 99 74 32 5 1 3 5 5 2 3 5 0 5 82 8 0 0 2
100 100 100 100 100 100 100 100 100 100 100 100 100 90 44 71 87 100 100 100 100 100 100 100 60 9 5 0 4 4 5 5 5 5 5 0 5 22 6 1 0 0 30
100 100 100 100 100 100 100 86 100 100 100 100 100 100 100 100 100 97 86 36 10 2 4 5 5 3 4 0 3 5 5 5 5 5 0 3 5 2 0 0 5 56 100
100 100 85 98 95 85 50 62 86 60 46 90 87 56 53 17 3 1 0 0 0 1 5 4 0 0 0 0 1 5 2 0 0 0 0 0 0 4 0 4 99 100 94
6 7 5 5 5 51 57 9 70 24 0 0 66 0 0 0 0 0 0 0 0 0 0 0 0 0 0 1 7 5 5 5 5 4 2 0 5 1 2 89 100 87 100
9 84 76 5 0 0 5 5 0 10 13 0 0 0 13 0 3 0 1 21 27 70 97 60 5 5 26 61 94 5 5 5 5 5 1 0 0 0 75 100 100 99 100
56 79 5 14 5 5 43 100 83 43 3 0 66 6 3 0 2 6 14 5 5 5 20 52 96 17 5 65 28 5 5 5 5 5 5 5 0 65 100 100 100 100 100
79 19 3 16 95 8 4 3 0 0 0 0 3 76 11 0 0 8 100 5 5 71 69 82 100 84 42 46 20 2 5 42 40 5 5 2 39 99 100 100 100 100 100
29 0 0 2 3 22 35 3 14 63 37 4 5 8 5 5 36 99 36 6 83 100 94 98 80 100 89 82 5 5 5 5 5 5 3 19 92 99 100 100 100 100 100
0 1 5 16 100 100 100 6 5 5 5 5 55 9 69 81 5 65 97 67 56 98 53 100 96 77 100 46 5 5 5 5 5 5 7 76 99 100 100 100 100 100 100
5 5 10 5 5 5 5 8 5 41 94 26 72 100 100 100 100 100 90 100 100 100 100 99 87 100 100 43 5 7 32 5 5 5 67 100 92 100 100 100 100 100 100
5 8 12 5 5 5 30 57 54 17 87 100 100 96 92 100 63 100 99 92 100 100 100 100 100 99 100 56 5 5 8 27 5 9 98 99 88 100 100 88 100 100 100
5 5 5 25 87 89 78 8 53 49 79 82 81 100 100 100 100 100 100 100 100 100 100 100 100 100 100 99 36 60 5 53 5 41 92 84 100 100 100 92 100 96 100
5 5 10 6 5 89 93 100 99 100 100 100 100 100 100 100 100 100 100 100 100 100 100 100 100 100 100 63 87 8 5 5 5 30 60 28 91 100 100 98 99 100 100
60 5 54 96 100 100 100 100 98 100 100 100 100 100 100 100 100 100 100 100 100 100 100 100 100 100 100 76 5 5 5 5 5 37 32 7 54 97 95 95 100 100 100